LOCATION_NAME,SAMPLE COLLECTION TIME,DOSE EQUIVALENT RATE (nSv/h),GAMMA COUNT RATE R02 (CPM),GAMMA COUNT RATE R03 (CPM),GAMMA COUNT RATE R04 (CPM),GAMMA COUNT RATE R05 (CPM),GAMMA COUNT RATE R06 (CPM),GAMMA COUNT RATE R07 (CPM),GAMMA COUNT RATE R08 (CPM),GAMMA COUNT RATE R09 (CPM),STATUS
WI: LA CROSSE,01/01/2016 00:38:00,,2559.00,1472.00,417.00,197.00,116.00,162.00,73.00,33.00,APPROVED
WI: LA CROSSE,01/01/2016 01:39:00,,2599.00,1496.00,437.00,202.00,120.00,166.00,74.00,33.00,APPROVED
WI: LA CROSSE,01/01/2016 02:39:00,,2647.00,1543.00,442.00,208.00,124.00,172.00,76.00,34.00,APPROVED
WI: LA CROSSE,01/01/2016 03:39:00,,2709.00,1599.00,468.00,215.00,129.00,182.00,81.00,36.00,APPROVED
WI: LA CROSSE,01/01/2016 04:39:00,,2744.00,1641.00,476.00,219.00,128.00,184.00,80.00,36.00,APPROVED
WI: LA CROSSE,01/01/2016 05:39:00,,2725.00,1645.00,489.00,227.00,132.00,186.00,82.00,36.00,APPROVED
WI: LA CROSSE,01/01/2016 06:40:00,,2683.00,1633.00,480.00,227.00,131.00,193.00,82.00,37.00,APPROVED
WI: LA CROSSE,01/01/2016 07:40:00,,2628.00,1595.00,469.00,220.00,130.00,185.00,82.00,37.00,APPROVED
WI: LA CROSSE,01/01/2016 08:40:00,,2554.00,1556.00,462.00,220.00,126.00,181.00,81.00,34.00,APPROVED
WI: LA CROSSE,01/01/2016 09:40:00,,2335.00,1370.00,408.00,190.00,114.00,158.00,74.00,34.00,APPROVED
WI: LA CROSSE,01/01/2016 10:40:00,,2300.00,1285.00,379.00,178.00,105.00,146.00,66.00,32.00,APPROVED
WI: LA CROSSE,01/01/2016 11:41:00,,2381.00,1360.00,396.00,184.00,110.00,151.00,70.00,33.00,APPROVED
WI: LA CROSSE,01/01/2016 12:41:00,,2298.00,1319.00,388.00,181.00,110.00,147.00,71.00,34.00,APPROVED
WI: LA CROSSE,01/01/2016 13:41:00,,2233.00,1244.00,360.00,168.00,103.00,140.00,64.00,32.00,APPROVED
WI: LA CROSSE,01/01/2016 14:41:00,,2210.00,1223.00,350.00,162.00,100.00,132.00,62.00,32.00,APPROVED
WI: LA CROSSE,01/01/2016 15:41:00,,2226.00,1214.00,347.00,164.00,99.00,133.00,62.00,31.00,APPROVED
WI: LA CROSSE,01/01/2016 16:42:00,,2239.00,1222.00,352.00,163.00,101.00,130.00,64.00,31.00,APPROVED
WI: LA CROSSE,01/01/2016 17:42:00,,2250.00,1240.00,359.00,168.00,99.00,135.00,65.00,30.00,APPROVED
WI: LA CROSSE,01/01/2016 18:42:00,,2272.00,1251.00,359.00,164.00,102.00,134.00,64.00,31.00,APPROVED
WI: LA CROSSE,01/01/2016 19:42:00,,2291.00,1254.00,355.00,165.00,103.00,135.00,66.00,31.00,APPROVED
WI: LA CROSSE,01/01/2016 20:42:00,,2267.00,1227.00,354.00,164.00,103.00,132.00,65.00,31.00,APPROVED
WI: LA CROSSE,01/01/2016 21:43:00,,2232.00,1215.00,344.00,164.00,97.00,130.00,63.00,31.00,APPROVED
WI: LA CROSSE,01/01/2016 22:43:00,,2223.00,1198.00,336.00,160.00,97.00,127.00,65.00,32.00,APPROVED
WI: LA CROSSE,01/01/2016 23:43:00,,2227.00,1206.00,334.00,161.00,99.00,125.00,62.00,30.00,APPROVED
WI: LA CROSSE,01/02/2016 00:43:00,,2237.00,1186.00,334.00,157.00,95.00,123.00,62.00,31.00,APPROVED
WI: LA CROSSE,01/02/2016 01:43:00,,2251.00,1199.00,340.00,156.00,97.00,124.00,64.00,32.00,APPROVED
WI: LA CROSSE,01/02/2016 02:44:00,,2260.00,1199.00,339.00,161.00,96.00,125.00,63.00,30.00,APPROVED
WI: LA CROSSE,01/02/2016 03:44:00,,2254.00,1207.00,342.00,159.00,97.00,122.00,61.00,30.00,APPROVED
WI: LA CROSSE,01/02/2016 04:44:00,,2259.00,1202.00,339.00,158.00,99.00,127.00,62.00,31.00,APPROVED
WI: LA CROSSE,01/02/2016 05:44:00,,2247.00,1200.00,340.00,159.00,95.00,126.00,60.00,30.00,APPROVED
WI: LA CROSSE,01/02/2016 06:45:00,,2255.00,1202.00,340.00,159.00,97.00,128.00,61.00,31.00,APPROVED
WI: LA CROSSE,01/02/2016 07:45:00,,2242.00,1207.00,343.00,158.00,101.00,129.00,62.00,30.00,APPROVED
WI: LA CROSSE,01/02/2016 08:45:00,,2250.00,1216.00,347.00,162.00,100.00,133.00,62.00,31.00,APPROVED
WI: LA CROSSE,01/02/2016 09:45:00,,2231.00,1213.00,348.00,160.00,99.00,133.00,62.00,31.00,APPROVED
WI: LA CROSSE,01/02/2016 10:45:00,,2236.00,1217.00,353.00,163.00,101.00,134.00,63.00,32.00,APPROVED
WI: LA CROSSE,01/02/2016 11:46:00,,2228.00,1234.00,349.00,157.00,98.00,137.00,62.00,32.00,APPROVED
WI: LA CROSSE,01/02/2016 12:46:00,,2260.00,1244.00,359.00,164.00,100.00,138.00,61.00,31.00,APPROVED
WI: LA CROSSE,01/02/2016 13:46:00,,2252.00,1245.00,360.00,164.00,101.00,138.00,59.00,32.00,APPROVED
WI: LA CROSSE,01/02/2016 14:46:00,,2225.00,1235.00,355.00,163.00,99.00,139.00,57.00,31.00,APPROVED
WI: LA CROSSE,01/02/2016 15:46:00,,2271.00,1269.00,363.00,171.00,102.00,141.00,62.00,32.00,APPROVED
WI: LA CROSSE,01/02/2016 16:47:00,,2261.00,1246.00,360.00,166.00,102.00,136.00,62.00,31.00,APPROVED
WI: LA CROSSE,01/02/2016 17:47:00,,2272.00,1250.00,357.00,168.00,104.00,136.00,64.00,32.00,APPROVED
WI: LA CROSSE,01/02/2016 18:47:00,,2262.00,1244.00,351.00,170.00,105.00,136.00,66.00,31.00,APPROVED
WI: LA CROSSE,01/02/2016 19:47:00,,2226.00,1217.00,346.00,167.00,102.00,128.00,68.00,30.00,APPROVED
WI: LA CROSSE,01/02/2016 20:47:00,,2196.00,1188.00,338.00,164.00,101.00,126.00,68.00,30.00,APPROVED
WI: LA CROSSE,01/02/2016 21:48:00,,2262.00,1229.00,344.00,165.00,99.00,128.00,68.00,32.00,APPROVED
WI: LA CROSSE,01/02/2016 22:48:00,,2313.00,1251.00,353.00,165.00,104.00,129.00,69.00,31.00,APPROVED
WI: LA CROSSE,01/02/2016 23:48:00,,2353.00,1263.00,354.00,169.00,101.00,131.00,65.00,31.00,APPROVED
WI: LA CROSSE,01/03/2016 00:48:00,,2354.00,1272.00,356.00,165.00,101.00,133.00,66.00,31.00,APPROVED
WI: LA CROSSE,01/03/2016 01:48:00,,2346.00,1262.00,355.00,166.00,102.00,131.00,65.00,32.00,APPROVED
WI: LA CROSSE,01/03/2016 02:49:00,,2319.00,1246.00,352.00,163.00,102.00,134.00,64.00,31.00,APPROVED
WI: LA CROSSE,01/03/2016 03:49:00,,2300.00,1241.00,345.00,163.00,101.00,129.00,63.00,32.00,APPROVED
WI: LA CROSSE,01/03/2016 04:49:00,,2271.00,1212.00,338.00,159.00,98.00,127.00,65.00,30.00,APPROVED
WI: LA CROSSE,01/03/2016 05:49:00,,2244.00,1198.00,333.00,154.00,96.00,124.00,60.00,32.00,APPROVED
WI: LA CROSSE,01/03/2016 06:49:00,,2211.00,1170.00,329.00,151.00,95.00,124.00,62.00,30.00,APPROVED
WI: LA CROSSE,01/03/2016 07:50:00,,2192.00,1150.00,321.00,149.00,94.00,124.00,58.00,29.00,APPROVED
WI: LA CROSSE,01/03/2016 08:50:00,,2174.00,1140.00,315.00,149.00,96.00,119.00,58.00,31.00,APPROVED
WI: LA CROSSE,01/03/2016 09:50:00,,2143.00,1117.00,314.00,144.00,93.00,117.00,58.00,31.00,APPROVED
WI: LA CROSSE,01/03/2016 10:50:00,,2089.00,1099.00,308.00,142.00,90.00,113.00,55.00,28.00,APPROVED
WI: LA CROSSE,01/03/2016 11:50:00,,2042.00,1053.00,299.00,138.00,89.00,109.00,55.00,29.00,APPROVED
WI: LA CROSSE,01/03/2016 12:51:00,,2032.00,1037.00,297.00,135.00,87.00,107.00,54.00,28.00,APPROVED
WI: LA CROSSE,01/03/2016 13:51:00,,2016.00,1035.00,289.00,137.00,86.00,105.00,56.00,29.00,APPROVED
WI: LA CROSSE,01/03/2016 14:51:00,,2030.00,1034.00,290.00,135.00,86.00,108.00,54.00,28.00,APPROVED
WI: LA CROSSE,01/03/2016 15:51:00,,2019.00,1020.00,286.00,135.00,87.00,104.00,57.00,28.00,APPROVED
WI: LA CROSSE,01/03/2016 16:51:00,,2011.00,1028.00,287.00,135.00,86.00,105.00,55.00,27.00,APPROVED
WI: LA CROSSE,01/03/2016 17:52:00,,2034.00,1047.00,297.00,137.00,86.00,108.00,56.00,28.00,APPROVED
WI: LA CROSSE,01/03/2016 18:52:00,,2015.00,1038.00,297.00,136.00,88.00,107.00,57.00,28.00,APPROVED
WI: LA CROSSE,01/03/2016 19:52:00,,2000.00,1014.00,289.00,136.00,86.00,102.00,57.00,28.00,APPROVED
WI: LA CROSSE,01/03/2016 20:52:00,,1972.00,1015.00,288.00,136.00,85.00,104.00,56.00,28.00,APPROVED
WI: LA CROSSE,01/03/2016 21:53:00,,1975.00,999.00,286.00,135.00,85.00,104.00,56.00,29.00,APPROVED
WI: LA CROSSE,01/03/2016 22:53:00,,1992.00,1014.00,283.00,134.00,85.00,102.00,57.00,28.00,APPROVED
WI: LA CROSSE,01/03/2016 23:53:00,,1977.00,1009.00,285.00,131.00,84.00,105.00,55.00,28.00,APPROVED
WI: LA CROSSE,01/04/2016 00:53:00,,1986.00,998.00,280.00,132.00,85.00,103.00,53.00,28.00,APPROVED
WI: LA CROSSE,01/04/2016 01:53:00,,1971.00,996.00,281.00,129.00,82.00,103.00,56.00,29.00,APPROVED
WI: LA CROSSE,01/04/2016 02:54:00,,1973.00,992.00,276.00,131.00,82.00,101.00,53.00,28.00,APPROVED
WI: LA CROSSE,01/04/2016 03:54:00,,1976.00,996.00,284.00,126.00,84.00,102.00,52.00,28.00,APPROVED
WI: LA CROSSE,01/04/2016 04:54:00,,1985.00,1004.00,279.00,132.00,84.00,101.00,54.00,28.00,APPROVED
WI: LA CROSSE,01/04/2016 05:54:00,,2002.00,1012.00,287.00,130.00,85.00,102.00,54.00,28.00,APPROVED
WI: LA CROSSE,01/04/2016 06:54:00,,2000.00,1014.00,288.00,133.00,87.00,105.00,56.00,29.00,APPROVED
WI: LA CROSSE,01/04/2016 07:55:00,,2001.00,1016.00,288.00,133.00,86.00,107.00,56.00,29.00,APPROVED
WI: LA CROSSE,01/04/2016 08:55:00,,2024.00,1029.00,291.00,136.00,84.00,107.00,54.00,26.00,APPROVED
WI: LA CROSSE,01/04/2016 09:55:00,,2021.00,1023.00,294.00,133.00,85.00,105.00,55.00,28.00,APPROVED
WI: LA CROSSE,01/04/2016 10:55:00,,2042.00,1031.00,291.00,134.00,87.00,107.00,55.00,29.00,APPROVED
WI: LA CROSSE,01/04/2016 11:55:00,,2039.00,1049.00,293.00,139.00,87.00,109.00,54.00,28.00,APPROVED
WI: LA CROSSE,01/04/2016 12:56:00,,2044.00,1052.00,296.00,136.00,89.00,108.00,56.00,29.00,APPROVED
WI: LA CROSSE,01/04/2016 13:56:00,,2049.00,1056.00,303.00,139.00,90.00,111.00,57.00,29.00,APPROVED
WI: LA CROSSE,01/04/2016 15:19:00,,2020.00,1016.00,283.00,128.00,85.00,104.00,50.00,29.00,APPROVED
WI: LA CROSSE,01/04/2016 16:20:00,,2022.00,1038.00,291.00,136.00,87.00,107.00,53.00,28.00,APPROVED
WI: LA CROSSE,01/04/2016 17:20:00,,1990.00,1019.00,290.00,137.00,86.00,107.00,58.00,29.00,APPROVED
WI: LA CROSSE,01/04/2016 18:20:00,,1978.00,1019.00,287.00,136.00,86.00,104.00,59.00,29.00,APPROVED
WI: LA CROSSE,01/04/2016 19:20:00,,1959.00,1015.00,287.00,135.00,89.00,102.00,60.00,29.00,APPROVED
WI: LA CROSSE,01/04/2016 20:21:00,,1959.00,1003.00,283.00,137.00,87.00,101.00,59.00,28.00,APPROVED
WI: LA CROSSE,01/04/2016 21:21:00,,1968.00,1009.00,288.00,136.00,87.00,102.00,59.00,28.00,APPROVED
WI: LA CROSSE,01/04/2016 22:21:00,,1947.00,996.00,283.00,137.00,85.00,101.00,59.00,27.00,APPROVED
WI: LA CROSSE,01/04/2016 23:21:00,,1954.00,994.00,280.00,131.00,86.00,102.00,56.00,28.00,APPROVED
WI: LA CROSSE,01/05/2016 00:21:00,,2007.00,1003.00,283.00,132.00,84.00,101.00,57.00,28.00,APPROVED
WI: LA CROSSE,01/05/2016 01:22:00,,2010.00,1016.00,278.00,131.00,84.00,105.00,53.00,28.00,APPROVED
WI: LA CROSSE,01/05/2016 02:22:00,,2023.00,1025.00,281.00,130.00,85.00,104.00,54.00,29.00,APPROVED
WI: LA CROSSE,01/05/2016 03:22:00,,2055.00,1051.00,291.00,134.00,86.00,110.00,56.00,29.00,APPROVED
WI: LA CROSSE,01/05/2016 04:22:00,,2070.00,1055.00,297.00,138.00,87.00,109.00,54.00,28.00,APPROVED
WI: LA CROSSE,01/05/2016 05:22:00,,2037.00,1047.00,291.00,132.00,85.00,107.00,52.00,28.00,APPROVED
WI: LA CROSSE,01/05/2016 06:23:00,,2051.00,1030.00,287.00,133.00,85.00,106.00,52.00,29.00,APPROVED
WI: LA CROSSE,01/05/2016 07:23:00,,2045.00,1042.00,289.00,133.00,87.00,107.00,50.00,28.00,APPROVED
WI: LA CROSSE,01/05/2016 08:23:00,,2056.00,1051.00,293.00,134.00,86.00,110.00,49.00,28.00,APPROVED
WI: LA CROSSE,01/05/2016 09:23:00,,2066.00,1046.00,289.00,131.00,86.00,111.00,49.00,29.00,APPROVED
WI: LA CROSSE,01/05/2016 10:23:00,,2043.00,1046.00,287.00,133.00,87.00,106.00,50.00,28.00,APPROVED
WI: LA CROSSE,01/05/2016 11:24:00,,2055.00,1043.00,291.00,133.00,87.00,110.00,49.00,29.00,APPROVED
WI: LA CROSSE,01/05/2016 12:24:00,,2059.00,1040.00,295.00,132.00,87.00,111.00,48.00,27.00,APPROVED
WI: LA CROSSE,01/05/2016 13:24:00,,2056.00,1052.00,296.00,133.00,86.00,112.00,51.00,29.00,APPROVED
WI: LA CROSSE,01/05/2016 14:24:00,,2064.00,1052.00,294.00,133.00,86.00,114.00,51.00,29.00,APPROVED
WI: LA CROSSE,01/05/2016 15:24:00,,2072.00,1063.00,299.00,135.00,85.00,112.00,52.00,28.00,APPROVED
WI: LA CROSSE,01/05/2016 16:25:00,,2065.00,1065.00,301.00,136.00,87.00,112.00,52.00,27.00,APPROVED
WI: LA CROSSE,01/05/2016 17:25:00,,2071.00,1064.00,301.00,135.00,87.00,113.00,54.00,29.00,APPROVED
WI: LA CROSSE,01/05/2016 18:25:00,,2068.00,1057.00,297.00,135.00,88.00,107.00,53.00,29.00,APPROVED
WI: LA CROSSE,01/05/2016 19:25:00,,2044.00,1039.00,293.00,136.00,87.00,105.00,56.00,30.00,APPROVED
WI: LA CROSSE,01/05/2016 20:25:00,,2024.00,1032.00,292.00,135.00,88.00,107.00,55.00,29.00,APPROVED
WI: LA CROSSE,01/05/2016 21:26:00,,2029.00,1034.00,292.00,134.00,88.00,106.00,57.00,29.00,APPROVED
WI: LA CROSSE,01/05/2016 22:26:00,,2033.00,1036.00,297.00,135.00,90.00,107.00,57.00,28.00,APPROVED
WI: LA CROSSE,01/05/2016 23:26:00,,2047.00,1043.00,293.00,137.00,85.00,109.00,55.00,28.00,APPROVED
WI: LA CROSSE,01/06/2016 00:26:00,,2056.00,1044.00,296.00,138.00,87.00,110.00,56.00,29.00,APPROVED
WI: LA CROSSE,01/06/2016 01:26:00,,2059.00,1042.00,294.00,135.00,89.00,108.00,56.00,28.00,APPROVED
WI: LA CROSSE,01/06/2016 02:27:00,,2058.00,1048.00,294.00,135.00,87.00,109.00,57.00,31.00,APPROVED
WI: LA CROSSE,01/06/2016 03:27:00,,2044.00,1045.00,290.00,136.00,87.00,109.00,54.00,29.00,APPROVED
WI: LA CROSSE,01/06/2016 04:27:00,,2033.00,1032.00,289.00,134.00,86.00,107.00,53.00,28.00,APPROVED
WI: LA CROSSE,01/06/2016 05:27:00,,2036.00,1033.00,289.00,135.00,88.00,105.00,53.00,28.00,APPROVED
WI: LA CROSSE,01/06/2016 06:28:00,,2044.00,1036.00,296.00,133.00,86.00,106.00,53.00,29.00,APPROVED
WI: LA CROSSE,01/06/2016 07:28:00,,2062.00,1043.00,294.00,135.00,88.00,109.00,57.00,29.00,APPROVED
WI: LA CROSSE,01/06/2016 08:28:00,,2052.00,1047.00,294.00,138.00,87.00,107.00,56.00,28.00,APPROVED
WI: LA CROSSE,01/06/2016 09:28:00,,2063.00,1053.00,294.00,137.00,88.00,109.00,57.00,28.00,APPROVED
WI: LA CROSSE,01/06/2016 10:28:00,,2056.00,1057.00,300.00,138.00,87.00,110.00,55.00,29.00,APPROVED
WI: LA CROSSE,01/06/2016 11:29:00,,2066.00,1059.00,296.00,139.00,88.00,109.00,56.00,30.00,APPROVED
WI: LA CROSSE,01/06/2016 12:29:00,,2073.00,1064.00,300.00,138.00,89.00,109.00,56.00,29.00,APPROVED
WI: LA CROSSE,01/06/2016 13:29:00,,2083.00,1065.00,298.00,139.00,91.00,109.00,57.00,29.00,APPROVED
WI: LA CROSSE,01/06/2016 14:29:00,,2083.00,1070.00,299.00,140.00,89.00,111.00,55.00,29.00,APPROVED
WI: LA CROSSE,01/06/2016 15:29:00,,2085.00,1071.00,307.00,141.00,86.00,108.00,57.00,29.00,APPROVED
WI: LA CROSSE,01/06/2016 16:30:00,,2083.00,1075.00,305.00,139.00,91.00,109.00,58.00,29.00,APPROVED
WI: LA CROSSE,01/06/2016 17:30:00,,2091.00,1077.00,306.00,143.00,92.00,110.00,59.00,29.00,APPROVED
WI: LA CROSSE,01/07/2016 16:25:00,,2234.00,1247.00,356.00,179.00,103.00,135.00,73.00,32.00,APPROVED
WI: LA CROSSE,01/07/2016 17:25:00,,2285.00,1295.00,370.00,187.00,108.00,141.00,76.00,33.00,APPROVED
WI: LA CROSSE,01/07/2016 18:25:00,,2347.00,1355.00,387.00,202.00,113.00,149.00,81.00,34.00,APPROVED
WI: LA CROSSE,01/07/2016 19:25:00,,2241.00,1277.00,365.00,190.00,106.00,139.00,76.00,33.00,APPROVED
WI: LA CROSSE,01/07/2016 20:26:00,,2216.00,1251.00,356.00,182.00,104.00,134.00,73.00,32.00,APPROVED
WI: LA CROSSE,01/07/2016 21:26:00,,2226.00,1253.00,355.00,184.00,108.00,134.00,76.00,32.00,APPROVED
WI: LA CROSSE,01/07/2016 22:26:00,,2188.00,1234.00,351.00,182.00,106.00,132.00,74.00,32.00,APPROVED
WI: LA CROSSE,01/07/2016 23:26:00,,2203.00,1236.00,350.00,183.00,103.00,133.00,74.00,33.00,APPROVED
WI: LA CROSSE,01/08/2016 00:26:00,,2243.00,1284.00,361.00,190.00,107.00,136.00,75.00,34.00,APPROVED
WI: LA CROSSE,01/08/2016 01:27:00,,2416.00,1414.00,396.00,210.00,115.00,150.00,81.00,33.00,APPROVED
WI: LA CROSSE,01/08/2016 02:27:00,,2531.00,1489.00,415.00,219.00,120.00,160.00,85.00,35.00,APPROVED
WI: LA CROSSE,01/08/2016 03:27:00,,2487.00,1455.00,413.00,215.00,118.00,156.00,85.00,34.00,APPROVED
WI: LA CROSSE,01/08/2016 04:27:00,,2468.00,1436.00,409.00,211.00,116.00,153.00,81.00,33.00,APPROVED
WI: LA CROSSE,01/08/2016 05:27:00,,2381.00,1373.00,392.00,198.00,112.00,149.00,81.00,33.00,APPROVED
WI: LA CROSSE,01/08/2016 06:28:00,,2388.00,1372.00,389.00,199.00,113.00,146.00,79.00,33.00,APPROVED
WI: LA CROSSE,01/08/2016 07:28:00,,2400.00,1408.00,394.00,208.00,112.00,149.00,81.00,33.00,APPROVED
WI: LA CROSSE,01/08/2016 08:28:00,,2369.00,1383.00,389.00,208.00,115.00,150.00,82.00,34.00,APPROVED
WI: LA CROSSE,01/08/2016 09:28:00,,2317.00,1362.00,376.00,204.00,112.00,145.00,80.00,34.00,APPROVED
WI: LA CROSSE,01/08/2016 10:28:00,,2318.00,1356.00,388.00,203.00,111.00,148.00,79.00,35.00,APPROVED
WI: LA CROSSE,01/08/2016 11:29:00,,2231.00,1280.00,358.00,193.00,106.00,136.00,77.00,32.00,APPROVED
WI: LA CROSSE,01/08/2016 12:29:00,,2216.00,1267.00,360.00,188.00,105.00,137.00,73.00,32.00,APPROVED
WI: LA CROSSE,01/08/2016 13:29:00,,2215.00,1264.00,361.00,188.00,106.00,135.00,74.00,32.00,APPROVED
WI: LA CROSSE,01/08/2016 14:29:00,,2218.00,1288.00,361.00,190.00,109.00,138.00,78.00,32.00,APPROVED
WI: LA CROSSE,01/08/2016 15:29:00,,2398.00,1445.00,406.00,223.00,119.00,154.00,86.00,34.00,APPROVED
WI: LA CROSSE,01/08/2016 16:30:00,,2349.00,1399.00,402.00,217.00,117.00,153.00,86.00,34.00,APPROVED
WI: LA CROSSE,01/08/2016 17:30:00,,2310.00,1383.00,385.00,213.00,117.00,150.00,85.00,33.00,APPROVED
WI: LA CROSSE,01/08/2016 18:30:00,,2344.00,1414.00,399.00,219.00,117.00,157.00,89.00,35.00,APPROVED
WI: LA CROSSE,01/08/2016 19:30:00,,2352.00,1436.00,411.00,223.00,123.00,161.00,88.00,35.00,APPROVED
WI: LA CROSSE,01/08/2016 20:30:00,,2390.00,1459.00,418.00,230.00,122.00,167.00,88.00,37.00,APPROVED
WI: LA CROSSE,01/08/2016 21:31:00,,2413.00,1460.00,418.00,228.00,122.00,165.00,88.00,36.00,APPROVED
WI: LA CROSSE,01/08/2016 22:31:00,,2516.00,1536.00,443.00,234.00,127.00,173.00,94.00,37.00,APPROVED
WI: LA CROSSE,01/08/2016 23:31:00,,2553.00,1542.00,439.00,231.00,130.00,173.00,90.00,36.00,APPROVED
WI: LA CROSSE,01/09/2016 00:31:00,,2402.00,1421.00,406.00,207.00,117.00,155.00,81.00,35.00,APPROVED
WI: LA CROSSE,01/09/2016 01:31:00,,2509.00,1483.00,427.00,219.00,122.00,161.00,86.00,34.00,APPROVED
WI: LA CROSSE,01/09/2016 02:32:00,,2658.00,1625.00,466.00,239.00,134.00,177.00,90.00,36.00,APPROVED
WI: LA CROSSE,01/09/2016 03:32:00,,2514.00,1492.00,434.00,221.00,123.00,164.00,86.00,36.00,APPROVED
WI: LA CROSSE,01/09/2016 04:32:00,,2539.00,1500.00,441.00,219.00,125.00,166.00,87.00,35.00,APPROVED
WI: LA CROSSE,01/09/2016 05:32:00,,2374.00,1376.00,395.00,201.00,114.00,151.00,79.00,33.00,APPROVED
WI: LA CROSSE,01/09/2016 06:33:00,,2247.00,1262.00,364.00,183.00,107.00,139.00,72.00,31.00,APPROVED
WI: LA CROSSE,01/09/2016 07:33:00,,2237.00,1260.00,362.00,182.00,106.00,136.00,73.00,31.00,APPROVED
WI: LA CROSSE,01/09/2016 08:33:00,,2462.00,1450.00,410.00,207.00,116.00,157.00,81.00,33.00,APPROVED
WI: LA CROSSE,01/09/2016 09:33:00,,2452.00,1405.00,411.00,203.00,116.00,154.00,79.00,35.00,APPROVED
WI: LA CROSSE,01/09/2016 10:33:00,,2269.00,1270.00,371.00,180.00,106.00,137.00,70.00,33.00,APPROVED
WI: LA CROSSE,01/09/2016 11:34:00,,2192.00,1198.00,348.00,166.00,97.00,130.00,65.00,30.00,APPROVED
WI: LA CROSSE,01/09/2016 12:34:00,,2118.00,1138.00,326.00,162.00,97.00,122.00,62.00,30.00,APPROVED
WI: LA CROSSE,01/09/2016 13:34:00,,2101.00,1125.00,321.00,153.00,95.00,119.00,63.00,30.00,APPROVED
WI: LA CROSSE,01/09/2016 14:34:00,,2095.00,1120.00,321.00,152.00,91.00,118.00,60.00,31.00,APPROVED
WI: LA CROSSE,01/09/2016 15:34:00,,2060.00,1084.00,311.00,148.00,90.00,117.00,59.00,29.00,APPROVED
WI: LA CROSSE,01/09/2016 16:35:00,,2037.00,1062.00,298.00,140.00,86.00,115.00,54.00,30.00,APPROVED
WI: LA CROSSE,01/09/2016 17:35:00,,2040.00,1056.00,302.00,137.00,87.00,114.00,53.00,28.00,APPROVED
WI: LA CROSSE,01/09/2016 18:35:00,,2040.00,1055.00,296.00,136.00,88.00,112.00,54.00,29.00,APPROVED
WI: LA CROSSE,01/09/2016 19:35:00,,2034.00,1051.00,298.00,136.00,87.00,113.00,51.00,30.00,APPROVED
WI: LA CROSSE,01/09/2016 20:35:00,,2014.00,1037.00,293.00,134.00,88.00,110.00,49.00,29.00,APPROVED
WI: LA CROSSE,01/09/2016 21:36:00,,2007.00,1031.00,294.00,130.00,86.00,110.00,49.00,29.00,APPROVED
WI: LA CROSSE,01/09/2016 22:36:00,,2003.00,1013.00,290.00,128.00,84.00,113.00,47.00,28.00,APPROVED
WI: LA CROSSE,01/09/2016 23:36:00,,1992.00,1004.00,287.00,126.00,83.00,108.00,45.00,28.00,APPROVED
WI: LA CROSSE,01/10/2016 00:36:00,,1973.00,988.00,282.00,127.00,83.00,110.00,43.00,28.00,APPROVED
WI: LA CROSSE,01/10/2016 01:36:00,,1950.00,982.00,275.00,125.00,81.00,106.00,42.00,28.00,APPROVED
WI: LA CROSSE,01/10/2016 02:37:00,,1938.00,973.00,277.00,123.00,84.00,107.00,42.00,28.00,APPROVED
WI: LA CROSSE,01/10/2016 03:37:00,,1938.00,965.00,273.00,119.00,79.00,108.00,42.00,28.00,APPROVED
WI: LA CROSSE,01/10/2016 04:37:00,,1923.00,961.00,269.00,124.00,80.00,106.00,41.00,28.00,APPROVED
WI: LA CROSSE,01/10/2016 05:37:00,,1919.00,948.00,273.00,121.00,77.00,107.00,41.00,28.00,APPROVED
WI: LA CROSSE,01/10/2016 06:37:00,,1911.00,958.00,268.00,122.00,82.00,105.00,38.00,28.00,APPROVED
WI: LA CROSSE,01/10/2016 07:38:00,,1917.00,954.00,270.00,119.00,80.00,105.00,39.00,25.00,APPROVED
WI: LA CROSSE,01/10/2016 08:38:00,,1924.00,958.00,273.00,120.00,80.00,105.00,40.00,27.00,APPROVED
WI: LA CROSSE,01/10/2016 09:38:00,,1912.00,956.00,271.00,119.00,78.00,106.00,38.00,28.00,APPROVED
WI: LA CROSSE,01/10/2016 10:38:00,,1902.00,942.00,270.00,120.00,81.00,105.00,37.00,28.00,APPROVED
WI: LA CROSSE,01/10/2016 11:39:00,,1887.00,939.00,271.00,118.00,79.00,107.00,37.00,28.00,APPROVED
WI: LA CROSSE,01/10/2016 12:39:00,,1895.00,939.00,268.00,121.00,81.00,105.00,37.00,28.00,APPROVED
WI: LA CROSSE,01/10/2016 13:39:00,,1884.00,943.00,268.00,120.00,80.00,106.00,38.00,28.00,APPROVED
WI: LA CROSSE,01/10/2016 14:39:00,,1877.00,937.00,269.00,119.00,80.00,108.00,38.00,28.00,APPROVED
WI: LA CROSSE,01/10/2016 15:39:00,,1904.00,944.00,267.00,119.00,79.00,106.00,37.00,28.00,APPROVED
WI: LA CROSSE,01/10/2016 16:40:00,,1917.00,958.00,272.00,121.00,80.00,105.00,37.00,27.00,APPROVED
WI: LA CROSSE,01/10/2016 17:40:00,,1919.00,954.00,272.00,119.00,82.00,105.00,38.00,28.00,APPROVED
WI: LA CROSSE,01/10/2016 18:40:00,,1945.00,974.00,268.00,120.00,82.00,109.00,39.00,28.00,APPROVED
WI: LA CROSSE,01/10/2016 19:40:00,,1944.00,969.00,268.00,123.00,80.00,106.00,39.00,27.00,APPROVED
WI: LA CROSSE,01/10/2016 20:40:00,,1961.00,973.00,272.00,120.00,81.00,107.00,40.00,28.00,APPROVED
WI: LA CROSSE,01/10/2016 21:41:00,,1969.00,987.00,280.00,123.00,80.00,109.00,41.00,29.00,APPROVED
WI: LA CROSSE,01/10/2016 22:41:00,,1982.00,988.00,277.00,124.00,80.00,108.00,42.00,28.00,APPROVED
WI: LA CROSSE,01/10/2016 23:41:00,,1985.00,1001.00,284.00,124.00,84.00,110.00,40.00,29.00,APPROVED
WI: LA CROSSE,01/11/2016 00:41:00,,1977.00,994.00,285.00,122.00,84.00,112.00,41.00,29.00,APPROVED
WI: LA CROSSE,01/11/2016 01:41:00,,1961.00,996.00,290.00,126.00,85.00,112.00,40.00,29.00,APPROVED
WI: LA CROSSE,01/11/2016 02:42:00,,1975.00,995.00,290.00,125.00,84.00,109.00,40.00,28.00,APPROVED
WI: LA CROSSE,01/11/2016 03:42:00,,1996.00,1008.00,291.00,127.00,84.00,113.00,39.00,27.00,APPROVED
WI: LA CROSSE,01/11/2016 04:42:00,,1997.00,1015.00,290.00,128.00,84.00,115.00,41.00,29.00,APPROVED
WI: LA CROSSE,01/11/2016 05:42:00,,2016.00,1029.00,292.00,124.00,86.00,112.00,40.00,28.00,APPROVED
WI: LA CROSSE,01/11/2016 06:42:00,,2000.00,1018.00,293.00,128.00,82.00,113.00,40.00,28.00,APPROVED
WI: LA CROSSE,01/11/2016 07:43:00,,2004.00,1014.00,292.00,127.00,86.00,116.00,39.00,28.00,APPROVED
WI: LA CROSSE,01/11/2016 08:43:00,,1993.00,1012.00,292.00,129.00,84.00,115.00,40.00,28.00,APPROVED
WI: LA CROSSE,01/11/2016 09:43:00,,1963.00,1012.00,287.00,128.00,86.00,114.00,40.00,28.00,APPROVED
WI: LA CROSSE,01/11/2016 10:43:00,,1974.00,1015.00,288.00,126.00,86.00,114.00,41.00,28.00,APPROVED
WI: LA CROSSE,01/11/2016 11:43:00,,1978.00,1002.00,287.00,125.00,83.00,114.00,41.00,28.00,APPROVED
WI: LA CROSSE,01/11/2016 12:44:00,,2003.00,1021.00,297.00,129.00,83.00,116.00,42.00,28.00,APPROVED
WI: LA CROSSE,01/11/2016 13:44:00,,1995.00,1023.00,298.00,130.00,86.00,118.00,42.00,29.00,APPROVED
WI: LA CROSSE,01/11/2016 14:44:00,,2002.00,1022.00,295.00,132.00,83.00,116.00,41.00,28.00,APPROVED
WI: LA CROSSE,01/11/2016 15:44:00,,1994.00,1018.00,292.00,128.00,87.00,115.00,41.00,28.00,APPROVED
WI: LA CROSSE,01/11/2016 16:44:00,,2013.00,1018.00,292.00,129.00,86.00,111.00,42.00,29.00,APPROVED
WI: LA CROSSE,01/11/2016 17:45:00,,2053.00,1041.00,295.00,131.00,84.00,114.00,44.00,28.00,APPROVED
WI: LA CROSSE,01/11/2016 18:45:00,,2098.00,1074.00,300.00,136.00,88.00,117.00,47.00,29.00,APPROVED
WI: LA CROSSE,01/11/2016 19:45:00,,2118.00,1087.00,305.00,135.00,88.00,113.00,50.00,29.00,APPROVED
WI: LA CROSSE,01/11/2016 20:45:00,,2123.00,1101.00,310.00,140.00,92.00,116.00,51.00,30.00,APPROVED
WI: LA CROSSE,01/11/2016 21:45:00,,2139.00,1120.00,311.00,143.00,90.00,121.00,52.00,29.00,APPROVED